Location: Koussan�
(15.2012°N, 12.5548°W)
Time: 12:01:45
(UTC+00:00)

Atlas Centaur 2 - Pass Details

Date: 20 October 2020
Orbit: 459 x 1309 km, 30.4° (Epoch: 26 November)

Event Time Altitude Azimuth Distance (km) Brightness Sun altitude
Rises 21:19:23 0° 270° (W) 4,278 6.7 -42.3°
Reaches altitude 10° 21:22:46 10° 279° (W) 3,268 5.8 -43.1°
Enters shadow 21:27:38 29° 308° (NW) 2,073 4.4 -44.2°
